GW0503 Weather Reports


time (UTC)temp
C
wind
direction
speed
KPH
gust
KPH
rain 1hr
cm
rain 24hr
cm
rain mn
cm
humidity
%
barometer
mb
20260505070058 7 197 11.3 20.9 0.00 1.12 0.03 84 1008.3
20260505064601 7 221 12.9 25.7 0.00 1.17 0.03 85 1008.0
20260505063103 7 213 9.7 17.7 0.00 1.17 0.03 84 1007.7
20260505061600 7 191 11.3 25.7 0.00 1.17 0.03 84 1007.4
20260505054600 7 224 19.3 32.2 0.00 1.22 0.03 84 1006.7
20260505053117 7 243 12.9 30.6 0.00 1.22 0.03 84 1006.5
20260505051558 7 230 9.7 25.7 0.00 1.22 0.03 83 1006.3
20260505050107 8 250 16.1 40.2 0.00 1.22 0.03 83 1006.0
20260505041555 8 211 17.7 30.6 0.00 1.24 0.03 84 1005.2
20260505040100 8 229 16.1 32.2 0.03 1.24 0.03 85 1005.1
20260505034615 8 217 12.9 29.0 0.03 1.27 0.03 86 1004.6
20260505033057 8 163 11.3 24.1 0.05 1.27 0.03 87 1004.6
20260505031556 7 187 14.5 27.4 0.08 1.27 0.03 88 1004.6
20260505030058 7 182 8.0 25.7 0.05 1.24 0.00 89 1004.4
20260505024558 8 201 12.9 29.0 0.05 1.27 1.24 87 1004.5
20260505023102 8 207 17.7 37.0 0.03 1.24 1.22 85 1004.2
20260505021558 8 214 17.7 32.2 0.00 1.22 1.19 80 1004.0
20260505020059 10 205 22.5 35.4 0.00 1.22 1.19 75 1003.8
20260505014556 10 222 24.1 38.6 0.00 1.30 1.19 73 1003.7
20260505013102 10 194 20.9 40.2 0.00 1.30 1.19 71 1003.5
20260505011611 10 198 22.5 38.6 0.00 1.30 1.19 70 1003.5
20260505010056 10 202 24.1 37.0 0.00 1.30 1.19 70 1003.4
20260505004609 10 227 14.5 43.5 0.00 1.55 1.19 67 1003.1
20260505003058 10 236 19.3 43.5 0.00 1.55 1.19 64 1003.0
20260505001629 10 209 17.7 37.0 0.00 1.55 1.19 61 1002.8
20260505000109 10 213 22.5 45.1 0.00 1.55 1.19 60 1002.8
20260504234610 10 161 12.9 29.0 0.00 2.03 1.19 62 1002.4
20260504233112 10 176 12.9 33.8 0.00 2.03 1.19 60 1002.1
20260504231559 10 185 9.7 27.4 0.00 2.03 1.19 59 1001.9
20260504230059 10 168 17.7 30.6 0.00 2.03 1.19 56 1001.7
20260504224556 11 193 12.9 30.6 0.00 2.34 1.19 54 1001.6
20260504223057 11 195 16.1 25.7 0.00 2.34 1.19 54 1001.1
20260504221555 11 189 14.5 35.4 0.00 2.34 1.19 54 1001.1
20260504220101 12 206 19.3 32.2 0.00 2.34 1.19 53 1001.1
20260504214607 12 211 17.7 29.0 0.00 2.72 1.19 55 1000.9
20260504213054 12 220 19.3 33.8 0.00 2.72 1.19 56 1000.8
20260504211557 12 184 19.3 40.2 0.00 2.72 1.19 56 1000.8
20260504210059 11 180 16.1 43.5 0.00 2.72 1.19 59 1000.8
20260504204608 11 259 19.3 48.3 0.00 2.77 1.19 61 1000.6
20260504203101 10 228 24.1 45.1 0.00 2.77 1.19 64 1000.5
20260504201556 11 245 22.5 59.5 0.00 2.77 1.19 64 1000.3
20260504194604 11 224 22.5 45.1 0.00 2.95 1.19 71 999.5
20260504193102 10 211 27.4 45.1 0.00 2.95 1.19 74 999.3
20260504191611 9 207 32.2 46.7 0.00 2.95 1.19 76 999.3
20260504190057 9 139 17.7 30.6 0.00 2.95 1.19 79 998.8
20260504184557 8 202 19.3 37.0 0.00 3.05 1.19 81 998.7
20260504183057 8 213 22.5 38.6 0.00 3.05 1.19 82 998.8
20260504181601 8 240 14.5 32.2 0.00 3.05 1.19 85 998.4
20260504180059 7 229 16.1 30.6 0.00 3.05 1.19 85 998.2
20260504174558 7 253 27.4 46.7 0.00 3.05 1.19 86 998.1
20260504173058 7 212 22.5 54.7 0.00 3.05 1.19 87 997.8
20260504171558 6 256 27.4 46.7 0.00 3.05 1.19 88 997.3
20260504120106 3 191 12.9 30.6 0.08 2.34 0.48 92 987.3
20260504090117 3 249 14.5 27.4 0.05 2.16 0.30 95 978.1
20260504081555 2 197 8.0 19.3 0.13 2.13 0.28 95 977.0